Owen Roberts, Cayman Islands

5:23 PM EST on September 24, 2017 (GMT -0500)
Roberts International

Weather History for MWCR - November, 2015

Change the Weather History Date:

Sunday, November 22, 2015

  Actual Average Record
Temperature  
Mean Temperature 82 °F -  
Max Temperature 87 °F 82 °F 87 °F (2015)
Min Temperature 77 °F 74 °F 35 °F (2002)
Cooling Degree Days 17    
Growing Degree Days 32 (Base 50)    
Moisture  
Dew Point 78 °F    
Average Humidity 85    
Maximum Humidity 100    
Minimum Humidity 72    
Precipitation  
Precipitation 0.00 in - - ()
Sea Level Pressure  
Sea Level Pressure 29.90 in    
Wind  
Wind Speed 4 mph ()    
Max Wind Speed 8 mph    
Max Gust Speed 22 mph    
Visibility 6.2 miles    
Events Rain    
Averages and records for this station are not official NWS values.
T = Trace of Precipitation, MM = Missing Value Source: Averaged Metar Reports

Daily Weather History Graph

Daily Weather History Graph

Search for Another Location

Airport or City:

Trip Planner

Search our weather history database for the weather conditions in past years. The results will help you decide how hot, cold, wet, or windy it might be!

Date:

Astronomy

Nov. 22, 2015 Rise Set
Actual Time 6:37 AM EST 5:45 PM EST
Civil Twilight 6:13 AM EST 6:09 PM EST
Nautical Twilight 5:46 AM EST 6:35 PM EST
Astronomical Twilight 5:20 AM EST 7:02 PM EST
Moon 3:20 PM EST (11/22) 3:04 AM EST (11/22)
Length of Visible Light 11h 55m
Length of Day
11h 08m
Waxing Gibbous, 86% of the Moon is Illuminated
Nov 22
Waxing Gibbous
Nov 25
Full
Dec 3
Last Quarter
Dec 11
New
Dec 18
First Quarter

Hourly Weather History & Observations

Time (EST) Temp. Heat Index Dew Point Humidity Pressure Visibility Wind Dir Wind Speed Gust Speed Precip Events Conditions
6:00 AM 78.8 °F - 75.2 °F 89% 29.86 in 6.2 mi East 8.1 mph - N/A Rain Light Rain Showers
6:53 AM 78.8 °F - 77.0 °F 94% 29.86 in 6.2 mi ESE 3.5 mph - N/A   Partly Cloudy
7:00 AM 78 °F - 77 °F 95% 29.88 in 6 mi ESE 3.5 mph - - Rain Light Rain Showers
7:55 AM 80.6 °F 87.1 °F 77.0 °F 89% 29.89 in 6.2 mi ESE 4.6 mph - N/A Rain Light Rain Showers
8:56 AM 84.2 °F 96.1 °F 78.8 °F 84% 29.92 in 6.2 mi East 4.6 mph - N/A   Partly Cloudy
9:53 AM 86.0 °F 99.3 °F 78.8 °F 79% 29.92 in 6.2 mi East 4.6 mph - N/A   Scattered Clouds
10:57 AM 86.0 °F 99.3 °F 78.8 °F 79% 29.92 in 6.2 mi SE 8.1 mph - N/A   Partly Cloudy
11:56 AM 86.0 °F 99.3 °F 78.8 °F 79% 29.92 in 6.2 mi SSE 5.8 mph - N/A   Partly Cloudy
12:52 PM 86.0 °F 99.3 °F 78.8 °F 79% 29.89 in 6.2 mi SE 6.9 mph - N/A   Partly Cloudy
1:00 PM 86 °F - 78 °F 72% 29.90 in 6 mi SE 6.9 mph - -   Partly Cloudy
1:50 PM 86.0 °F 96.9 °F 77.0 °F 74% 29.86 in 6.2 mi SSE 5.8 mph - N/A   Partly Cloudy
3:00 PM 86.0 °F 96.9 °F 77.0 °F 74% 29.86 in 6.2 mi SSE 5.8 mph - N/A   Scattered Clouds
4:00 PM 86.0 °F 96.9 °F 77.0 °F 74% 29.86 in 6.2 mi South 5.8 mph - N/A   Partly Cloudy
5:00 PM 84.2 °F 96.1 °F 78.8 °F 84% 29.86 in 6.2 mi South 4.6 mph - N/A   Partly Cloudy
6:00 PM 82.4 °F 92.4 °F 78.8 °F 89% 29.86 in 6.2 mi Variable 1.2 mph - N/A   Partly Cloudy
7:00 PM 83 °F - 78 °F 80% 29.91 in 6 mi Calm Calm - -   Partly Cloudy
7:00 PM 82.4 °F 92.4 °F 78.8 °F 89% 29.89 in 6.2 mi Calm Calm - N/A   Partly Cloudy
8:00 PM 82.4 °F 92.4 °F 78.8 °F 89% 29.92 in 6.2 mi SSW 4.6 mph 21.9 mph N/A Rain Rain Showers
9:00 PM 78.8 °F - 77.0 °F 94% 29.92 in 6.2 mi SSW 4.6 mph - N/A   Scattered Clouds
10:00 PM 78.8 °F - 77.0 °F 94% 29.95 in 6.2 mi SSW 2.3 mph - N/A   Partly Cloudy
11:00 PM 78.8 °F - 78.8 °F 100% 29.95 in 6.2 mi Calm Calm - N/A   Partly Cloudy